SHIJIAN-29B (SJ-29B)

Last updated on Sun Jun 21 2026 00:03:10 GMT+0000 (Coordinated Universal Time)

1 67403U 25315C 26171.12134347 -.00000073 00000+0 00000+0 0 9997 2 67403 3.4052 95.0272 0004057 34.8918 255.3079 1.00270047 1711
UTC large
Height (km)
Speed (km/s)
/
Latitude / Longitude
Inclination (degrees)
Orbital Period (minutes)
Azimuth
Elevation
Range (km)
Doppler Factor

Next 0 passes for location: London (51.5072 / 0.1276)

No passes found over London.
SHIJIAN-29B (SJ-29B)